[[{"header":{"parameterUnit":"m.s-1","parameterCategory":2,"la1":30.2992,"la2":30.254,"lo1":-89.0895,"lo2":-89.0443,"dy":0.0025,"dx":0.0025,"nx":19,"ny":19,"refTime":"2026-05-10T21:00:00:Z","depth":"0","parameterNumber":2,"parameterNumberName":"U-component_of_CURRENTS"},"data":[0,0,0,-0.1264,-0.1264,-0.1241,-0.124,-0.1159,-0.1159,0,0,0,0,0,0,0,0,0,0,0,-0.127,-0.127,-0.1265,-0.1264,-0.1241,-0.124,-0.116,-0.1159,0,0,0,0,0,0,0,0,0,0,0,-0.127,-0.127,-0.1271,-0.1264,-0.1241,-0.124,-0.116,-0.1187,0,0,0,0,0,0,0,0,0,0,-0.1215,-0.1237,-0.127,-0.1271,-0.1264,-0.1241,-0.124,-0.1189,-0.1185,-0.116,0,-0.1164,0,-0.1165,-0.1153,-0.1153,0,0,0,-0.1252,-0.124,-0.1232,-0.1271,-0.1264,-0.1241,-0.1248,-0.1187,-0.1183,-0.1155,-0.1163,-0.116,-0.1163,-0.1153,-0.1152,-0.1127,-0.1127,0,0,-0.1253,-0.1264,-0.1235,-0.123,-0.1267,-0.1249,-0.1247,-0.1185,-0.1185,-0.1163,-0.1159,-0.1162,-0.1152,-0.1152,-0.1127,-0.1127,0,0,0,-0.1265,-0.1265,-0.1259,-0.1233,-0.1235,-0.1248,-0.1247,-0.1188,-0.1186,-0.1158,-0.1161,-0.1152,-0.1151,-0.1126,-0.1127,-0.1205,0,0,0,-0.1266,-0.1273,-0.1259,-0.1265,-0.1237,-0.122,-0.125,-0.119,-0.1183,-0.1161,-0.1152,-0.115,-0.1126,-0.1126,-0.1203,-0.1243,0,0,0,-0.127,-0.1273,-0.1273,-0.1266,-0.1261,-0.1221,-0.1215,-0.1188,-0.1185,-0.1153,-0.115,-0.1126,-0.1126,-0.12,-0.1238,-0.1218,0,0,0,-0.1277,-0.1313,-0.1273,-0.1305,-0.1262,-0.1268,-0.1215,-0.1212,-0.1192,-0.1151,-0.1126,-0.1127,-0.1199,-0.1235,-0.1216,-0.1129,-0.1132,0,0,-0.1333,-0.132,-0.1337,-0.1302,-0.1334,-0.1269,-0.1288,-0.1239,-0.1192,-0.1139,-0.1139,-0.1203,-0.1238,-0.1218,-0.1174,-0.1175,0,0,0,-0.1362,-0.1384,-0.1383,-0.1388,-0.1362,-0.1346,-0.1295,-0.1266,-0.123,-0.1185,-0.1197,-0.1216,-0.1201,-0.1144,-0.1145,-0.1093,-0.113,-0.113,-0.113,-0.1478,-0.1454,-0.1484,-0.1458,-0.1447,-0.1399,-0.1381,-0.133,-0.1274,-0.1274,-0.1276,-0.1311,-0.1253,-0.1252,-0.1201,-0.1266,-0.1267,-0.1267,-0.1267,-0.1576,-0.1558,-0.1551,-0.1571,-0.1525,-0.152,-0.1453,-0.1419,-0.1376,-0.1339,-0.1319,-0.1225,-0.1258,-0.1202,-0.1272,-0.1271,-0.1271,-0.127,-0.127,-0.1622,-0.1592,-0.1626,-0.161,-0.1614,-0.1563,-0.1489,-0.1474,-0.1446,-0.1448,-0.1319,-0.1316,-0.1266,-0.1414,-0.1414,-0.1414,-0.1414,-0.1414,-0.1414,-0.1595,-0.1622,-0.1582,-0.1622,-0.1565,-0.1531,-0.1497,-0.1451,-0.1419,-0.1396,-0.1393,-0.1269,-0.1354,-0.1348,-0.1416,-0.1416,-0.1416,-0.1415,-0.1415,-0.1478,-0.1499,-0.1432,-0.1384,-0.1312,-0.1208,-0.1284,-0.1246,-0.1272,-0.1251,-0.1245,-0.1341,-0.1295,-0.1292,-0.1282,-0.133,-0.133,-0.133,-0.133,-0.1322,-0.1364,-0.1172,-0.1053,-0.0972,-0.0994,-0.0848,-0.0939,-0.1066,-0.1109,-0.1185,-0.1139,-0.1145,-0.1088,-0.109,-0.1075,-0.1069,-0.1069,-0.1069,-0.1114,-0.1114,-0.0904,-0.0878,-0.0766,-0.072,-0.0588,-0.0654,-0.0901,-0.1057,-0.1136,-0.1147,-0.1082,-0.1095,-0.1004,-0.101,-0.0985,0,0]},{"header":{"parameterUnit":"m.s-1","parameterCategory":2,"la1":30.2992,"la2":30.254,"lo1":-89.0895,"lo2":-89.0443,"dy":0.0025,"dx":0.0025,"nx":19,"ny":19,"refTime":"2026-05-10T21:00:00:Z","depth":"0","parameterNumber":3,"parameterNumberName":"V-component_of_CURRENTS"},"data":[0,0,0,0.0875,0.0877,0.0968,0.0968,0.1058,0.1059,0,0,0,0,0,0,0,0,0,0,0,0.0835,0.0836,0.0874,0.0877,0.0968,0.0968,0.1058,0.1059,0,0,0,0,0,0,0,0,0,0,0,0.0835,0.0836,0.0836,0.0877,0.0968,0.0968,0.1058,0.0994,0,0,0,0,0,0,0,0,0,0,0.0909,0.0866,0.0835,0.0836,0.0878,0.0968,0.0968,0.0992,0.0998,0.1011,0,0.1025,0,0.105,0.1065,0.1065,0,0,0,0.0872,0.086,0.09,0.0836,0.0879,0.0968,0.0925,0.0996,0.1003,0.1019,0.1027,0.1031,0.1052,0.1065,0.1066,0.1136,0.1136,0,0,0.0867,0.0838,0.0894,0.0904,0.0903,0.0923,0.0928,0.1,0.0999,0.1027,0.1033,0.1053,0.1066,0.1066,0.1136,0.1136,0,0,0,0.0856,0.0835,0.0872,0.09,0.0922,0.0925,0.0932,0.0996,0.1013,0.1034,0.1054,0.1066,0.1067,0.1136,0.1136,0.1096,0,0,0,0.0853,0.0829,0.087,0.0852,0.0921,0.0962,0.0925,0.1007,0.1017,0.1054,0.1066,0.1068,0.1136,0.1136,0.1096,0.1069,0,0,0,0.0831,0.0826,0.0841,0.085,0.0895,0.0961,0.0981,0.101,0.1029,0.1065,0.1068,0.1135,0.1136,0.1097,0.1071,0.106,0,0,0,0.0794,0.0809,0.0839,0.0864,0.0894,0.0952,0.0981,0.1023,0.1052,0.1067,0.1136,0.1136,0.1097,0.1072,0.1061,0.1051,0.1045,0,0,0.0794,0.0808,0.0826,0.0856,0.0901,0.0939,0.0977,0.1027,0.106,0.1109,0.1111,0.1096,0.1071,0.106,0.1067,0.106,0,0,0,0.0814,0.0818,0.0839,0.0873,0.0927,0.0951,0.1008,0.1035,0.1078,0.1081,0.1113,0.1099,0.1093,0.109,0.1085,0.1078,0.1137,0.1137,0.1137,0.0739,0.0791,0.0811,0.0868,0.0902,0.0967,0.0989,0.1035,0.1074,0.1087,0.1079,0.106,0.1057,0.1053,0.1046,0.11,0.1099,0.1099,0.1099,0.0705,0.0701,0.0774,0.081,0.0861,0.0895,0.0967,0.0997,0.1036,0.1067,0.1063,0.1064,0.1044,0.104,0.1097,0.1097,0.1098,0.1098,0.1098,0.0614,0.0619,0.0665,0.0723,0.0773,0.0846,0.0884,0.0932,0.0986,0.0989,0.1002,0.1002,0.0987,0.0993,0.0992,0.0992,0.0992,0.0992,0.0992,0.0482,0.0536,0.0572,0.0638,0.069,0.0748,0.0833,0.0861,0.0906,0.0954,0.0954,0.0982,0.1027,0.1018,0.0989,0.099,0.099,0.099,0.0991,0.0378,0.0411,0.0465,0.0522,0.0654,0.0721,0.0795,0.086,0.0872,0.0894,0.0914,0.0944,0.0956,0.0961,0.0951,0.0906,0.0906,0.0906,0.0906,0.03,0.0321,0.0423,0.0526,0.0617,0.0723,0.0816,0.0897,0.0914,0.089,0.0876,0.0896,0.09,0.091,0.0916,0.0906,0.0851,0.0851,0.0851,0.0269,0.0303,0.0379,0.05,0.0628,0.0735,0.084,0.0936,0.0878,0.0849,0.0866,0.0868,0.09,0.0906,0.0926,0.0935,0.0922,0,0]}],[{"header":{"parameterUnit":"m.s-1","parameterCategory":2,"la1":30.2992,"la2":30.254,"lo1":-89.0895,"lo2":-89.0443,"dy":0.0025,"dx":0.0025,"nx":19,"ny":19,"refTime":"2026-05-10T21:00:00:Z","depth":"2","parameterNumber":2,"parameterNumberName":"U-component_of_CURRENTS"},"data":[0,0,0,-0.1125,-0.1125,-0.111,-0.111,-0.1056,-0.1056,0,0,0,0,0,0,0,0,0,0,0,-0.1119,-0.1119,-0.1125,-0.1125,-0.1111,-0.111,-0.1056,-0.1056,0,0,0,0,0,0,0,0,0,0,0,-0.1119,-0.1119,-0.1118,-0.1125,-0.1111,-0.111,-0.1056,-0.1074,0,0,0,0,0,0,0,0,0,0,-0.1092,-0.1097,-0.1119,-0.1118,-0.1125,-0.1111,-0.111,-0.1076,-0.1073,-0.1055,0,-0.105,0,-0.1059,-0.1052,-0.1052,0,0,0,-0.1117,-0.1099,-0.1095,-0.1118,-0.1125,-0.1111,-0.1115,-0.1074,-0.1072,-0.1052,-0.1049,-0.1048,-0.1058,-0.1052,-0.1051,-0.1013,-0.1013,0,0,-0.1118,-0.1115,-0.1097,-0.1094,-0.1116,-0.1115,-0.1115,-0.1073,-0.1067,-0.1049,-0.1047,-0.1057,-0.1051,-0.1051,-0.1013,-0.1013,0,0,0,-0.1126,-0.1116,-0.1114,-0.1095,-0.11,-0.1115,-0.1114,-0.1069,-0.1068,-0.1046,-0.1056,-0.1051,-0.105,-0.1013,-0.1013,-0.1061,0,0,0,-0.1126,-0.1121,-0.1114,-0.1112,-0.1101,-0.109,-0.111,-0.107,-0.1067,-0.1057,-0.1051,-0.105,-0.1013,-0.1013,-0.1059,-0.1066,0,0,0,-0.1121,-0.1121,-0.1118,-0.1112,-0.1111,-0.1091,-0.1088,-0.107,-0.1073,-0.1052,-0.105,-0.1013,-0.1013,-0.1058,-0.1065,-0.0986,0,0,0,-0.112,-0.1139,-0.1117,-0.1131,-0.1111,-0.1118,-0.1089,-0.1085,-0.107,-0.1051,-0.1013,-0.1013,-0.1058,-0.1064,-0.0987,-0.097,-0.0967,0,0,-0.1154,-0.1143,-0.1152,-0.1132,-0.116,-0.112,-0.1128,-0.1094,-0.1061,-0.1022,-0.1022,-0.106,-0.1065,-0.0986,-0.0969,-0.0966,0,0,0,-0.1169,-0.118,-0.1181,-0.1184,-0.1172,-0.116,-0.113,-0.111,-0.1078,-0.1053,-0.1046,-0.1047,-0.0995,-0.0987,-0.0984,-0.1013,-0.1013,-0.1013,-0.1013,-0.1217,-0.1212,-0.123,-0.1226,-0.122,-0.1185,-0.1162,-0.1122,-0.1099,-0.1092,-0.1076,-0.1037,-0.1032,-0.1028,-0.1072,-0.1072,-0.1072,-0.1072,-0.1072,-0.1274,-0.127,-0.1263,-0.129,-0.1259,-0.1257,-0.1195,-0.1169,-0.11,-0.1111,-0.1058,-0.1028,-0.1028,-0.1076,-0.1075,-0.1075,-0.1074,-0.1074,-0.1074,-0.1296,-0.1288,-0.1315,-0.1317,-0.1315,-0.128,-0.1212,-0.1172,-0.1124,-0.109,-0.0998,-0.0997,-0.1031,-0.1036,-0.1036,-0.1036,-0.1035,-0.1035,-0.1035,-0.1288,-0.131,-0.1301,-0.1324,-0.1314,-0.1276,-0.1208,-0.1143,-0.105,-0.1024,-0.1023,-0.1023,-0.1024,-0.1026,-0.1031,-0.1031,-0.1032,-0.1032,-0.1033,-0.1265,-0.1268,-0.1253,-0.1246,-0.1227,-0.1184,-0.1153,-0.105,-0.0965,-0.0915,-0.0961,-0.0964,-0.0924,-0.0927,-0.0925,-0.0902,-0.0902,-0.0902,-0.0902,-0.1217,-0.1224,-0.1171,-0.1145,-0.1124,-0.1125,-0.1021,-0.0931,-0.0872,-0.0802,-0.0806,-0.0841,-0.0849,-0.0806,-0.0811,-0.0807,-0.0753,-0.0753,-0.0752,-0.1158,-0.1153,-0.1089,-0.1089,-0.1092,-0.1053,-0.0973,-0.0824,-0.0649,-0.0744,-0.0752,-0.0897,-0.0963,-0.097,-0.0916,-0.092,-0.0918,0,0]},{"header":{"parameterUnit":"m.s-1","parameterCategory":2,"la1":30.2992,"la2":30.254,"lo1":-89.0895,"lo2":-89.0443,"dy":0.0025,"dx":0.0025,"nx":19,"ny":19,"refTime":"2026-05-10T21:00:00:Z","depth":"2","parameterNumber":3,"parameterNumberName":"V-component_of_CURRENTS"},"data":[0,0,0,0.0174,0.0176,0.0265,0.0265,0.0311,0.0312,0,0,0,0,0,0,0,0,0,0,0,0.0118,0.0118,0.0174,0.0176,0.0265,0.0265,0.0311,0.0312,0,0,0,0,0,0,0,0,0,0,0,0.0118,0.0118,0.0118,0.0176,0.0265,0.0265,0.0311,0.026,0,0,0,0,0,0,0,0,0,0,0.0182,0.0161,0.0118,0.0118,0.0177,0.0264,0.0265,0.0259,0.0264,0.0252,0,0.0251,0,0.0293,0.0313,0.0313,0,0,0,0.0174,0.0157,0.0165,0.0118,0.0178,0.0264,0.0224,0.0262,0.0267,0.0259,0.0252,0.0255,0.0294,0.0313,0.0314,0.0293,0.0292,0,0,0.0169,0.0153,0.0161,0.0168,0.018,0.0221,0.0227,0.0266,0.027,0.0252,0.0257,0.0294,0.0314,0.0314,0.0293,0.0293,0,0,0,0.0156,0.015,0.0159,0.0165,0.0192,0.0224,0.023,0.0269,0.0266,0.0258,0.0295,0.0314,0.0314,0.0293,0.0293,0.0248,0,0,0,0.0153,0.0143,0.0156,0.0151,0.0191,0.0248,0.0232,0.0263,0.027,0.0295,0.0314,0.0314,0.0294,0.0293,0.025,0.0272,0,0,0,0.0118,0.0141,0.014,0.0149,0.019,0.0248,0.025,0.0266,0.0292,0.0313,0.0314,0.0294,0.0293,0.0252,0.0274,0.0206,0,0,0,0.0114,0.0068,0.0139,0.01,0.0189,0.0154,0.025,0.0276,0.029,0.0314,0.0294,0.0293,0.0253,0.0276,0.0208,0.021,0.02,0,0,0.0042,0.006,0.0032,0.0097,0.001,0.0143,0.0128,0.0224,0.0269,0.0277,0.0278,0.025,0.0275,0.0206,0.0151,0.0143,0,0,0,-0.0001,-0.0015,-0.005,-0.0046,-0.005,0.0009,0.0113,0.0161,0.0225,0.0276,0.0242,0.026,0.0217,0.0222,0.0216,0.0288,0.0288,0.0288,0.0288,-0.0121,-0.01,-0.0165,-0.0149,-0.0137,-0.0045,-0.0001,0.0104,0.0141,0.0174,0.0215,0.013,0.0135,0.013,0.0184,0.0184,0.0184,0.0184,0.0184,-0.0258,-0.0308,-0.0204,-0.0231,-0.0153,-0.009,-0.0015,0.0051,0.009,0.0153,0.0111,0.0167,0.012,0.018,0.0181,0.0181,0.0181,0.0182,0.0182,-0.0415,-0.0429,-0.0349,-0.0284,-0.0165,-0.0058,0.001,0.0069,0.0077,0.0068,0.0062,0.0063,0.0108,0.0042,0.0042,0.0041,0.0041,0.0041,0.0041,-0.0613,-0.0543,-0.0493,-0.0352,-0.0263,-0.0122,0.0029,0.0031,0.0031,0.0041,0.0039,0.0083,0.0087,0.01,0.0037,0.0038,0.0038,0.0039,0.0039,-0.0825,-0.0712,-0.0675,-0.0584,-0.0379,-0.0299,-0.0152,-0.0075,-0.0062,-0.0098,-0.001,-0.0008,0.0008,0.0014,0.0025,-0.0054,-0.0054,-0.0054,-0.0054,-0.0932,-0.0894,-0.0776,-0.0676,-0.0567,-0.0391,-0.0393,-0.0321,-0.0224,-0.0198,-0.0193,-0.017,-0.0162,-0.0154,-0.0144,-0.0136,-0.0257,-0.0257,-0.0258,-0.0995,-0.0949,-0.0878,-0.0732,-0.0614,-0.0505,-0.051,-0.046,-0.0319,-0.0272,-0.0287,-0.0056,-0.0003,0.0002,0.0033,0.0041,0.0063,0,0]}],[{"header":{"parameterUnit":"m.s-1","parameterCategory":2,"la1":30.2992,"la2":30.254,"lo1":-89.0895,"lo2":-89.0443,"dy":0.0025,"dx":0.0025,"nx":19,"ny":19,"refTime":"2026-05-10T21:00:00:Z","depth":"4","parameterNumber":2,"parameterNumberName":"U-component_of_CURRENTS"},"data":[0,0,0,-0.0487,-0.049,-0.0604,-0.0604,-0.0795,-0.0797,0,0,0,0,0,0,0,0,0,0,0,-0.0452,-0.0453,-0.0487,-0.049,-0.0604,-0.0604,-0.0795,-0.0797,0,0,0,0,0,0,0,0,0,0,0,-0.0452,-0.0453,-0.0454,-0.049,-0.0604,-0.0604,-0.0794,-0.0697,0,0,0,0,0,0,0,0,0,0,-0.058,-0.0543,-0.0453,-0.0454,-0.0491,-0.0604,-0.0604,-0.0691,-0.0703,-0.0757,0,-0.0782,0,-0.0796,-0.0811,-0.0812,0,0,0,-0.0488,-0.0534,-0.0564,-0.0454,-0.0492,-0.0604,-0.0552,-0.0697,-0.071,-0.0772,-0.0785,-0.0792,-0.0799,-0.0812,-0.0813,-0.0985,-0.0985,0,0,-0.0482,-0.0475,-0.0555,-0.0572,-0.0534,-0.0548,-0.0555,-0.0705,-0.0725,-0.0786,-0.0796,-0.0802,-0.0814,-0.0815,-0.0984,-0.0985,0,0,0,-0.0465,-0.0471,-0.0496,-0.0565,-0.0583,-0.0552,-0.056,-0.0719,-0.0727,-0.0798,-0.0804,-0.0815,-0.0817,-0.0984,-0.0985,-0.0959,0,0,0,-0.0461,-0.0461,-0.0493,-0.0491,-0.058,-0.0647,-0.0571,-0.0717,-0.0734,-0.0803,-0.0815,-0.0819,-0.0984,-0.0984,-0.0959,-0.0939,0,0,0,-0.0445,-0.0459,-0.0475,-0.049,-0.0539,-0.0644,-0.0661,-0.072,-0.0739,-0.0812,-0.082,-0.0983,-0.0984,-0.0959,-0.0939,-0.0914,0,0,0,-0.0428,-0.0454,-0.0475,-0.0506,-0.0538,-0.0599,-0.066,-0.0744,-0.0807,-0.0816,-0.0984,-0.0984,-0.0959,-0.094,-0.0915,-0.0811,0,0,0,-0.0443,-0.0456,-0.047,-0.0491,-0.0544,-0.0583,-0.0642,-0.0766,-0.0834,-0.0937,-0.0941,-0.0959,-0.094,-0.0914,-0.0857,0,0,0,0,-0.0462,-0.048,-0.0498,-0.0538,-0.0582,-0.0626,-0.0721,-0.0756,-0.0869,-0.0876,-0.0982,-0.0971,-0.0955,-0.0898,-0.0988,-0.0988,-0.0988,-0.0988,-0.0988,-0.0468,-0.0488,-0.0524,-0.0558,-0.0599,-0.0681,-0.072,-0.0795,-0.0867,-0.0907,-0.0967,-0.0953,-0.0896,-0.0992,-0.0992,-0.0992,-0.0992,-0.0992,-0.0991,-0.0469,-0.0487,-0.0532,-0.0572,-0.0623,-0.0683,-0.0744,-0.0796,-0.0875,-0.0925,-0.0912,-0.0897,-0.099,-0.099,-0.099,-0.099,-0.0991,-0.0991,-0.0991,-0.0457,-0.0472,-0.05,-0.0555,-0.063,-0.0693,-0.0739,-0.081,-0.0854,-0.0884,-0.0843,-0.0932,-0.0913,-0.09,-0.09,-0.09,-0.09,-0.09,-0.0899,-0.0424,-0.0457,-0.0485,-0.0545,-0.0593,-0.0654,-0.074,-0.0741,-0.0798,-0.08,-0.0897,-0.0922,-0.0925,-0.0909,-0.0897,-0.0897,-0.0897,-0.0898,-0.0898,-0.0415,-0.0432,-0.0457,-0.0492,-0.0566,-0.0599,-0.067,-0.065,-0.065,-0.0619,-0.0739,-0.0748,-0.0741,-0.0749,-0.0726,-0.0658,-0.0657,-0.0656,0,-0.0409,-0.0417,-0.0439,-0.0464,-0.0491,-0.056,-0.0537,-0.0541,-0.0566,-0.0582,-0.0643,-0.0782,-0.0788,-0.0784,-0.0788,-0.0762,0,0,0,-0.0408,-0.0414,-0.0416,-0.0435,-0.0458,-0.0483,-0.053,-0.0508,-0.0599,-0.05,-0.062,-0.0629,-0.0726,-0.0888,-0.0898,-0.0902,-0.0876,0,0]},{"header":{"parameterUnit":"m.s-1","parameterCategory":2,"la1":30.2992,"la2":30.254,"lo1":-89.0895,"lo2":-89.0443,"dy":0.0025,"dx":0.0025,"nx":19,"ny":19,"refTime":"2026-05-10T21:00:00:Z","depth":"4","parameterNumber":3,"parameterNumberName":"V-component_of_CURRENTS"},"data":[0,0,0,-0.0601,-0.0603,-0.0673,-0.0674,-0.0733,-0.0733,0,0,0,0,0,0,0,0,0,0,0,-0.058,-0.058,-0.0601,-0.0603,-0.0673,-0.0674,-0.0733,-0.0733,0,0,0,0,0,0,0,0,0,0,0,-0.0579,-0.058,-0.0581,-0.0603,-0.0673,-0.0674,-0.0733,-0.0688,0,0,0,0,0,0,0,0,0,0,-0.0623,-0.0619,-0.058,-0.0581,-0.0604,-0.0673,-0.0674,-0.0686,-0.069,-0.0692,0,-0.0706,0,-0.0719,-0.0736,-0.0737,0,0,0,-0.0605,-0.0615,-0.0621,-0.0581,-0.0604,-0.0673,-0.0642,-0.0689,-0.0694,-0.0697,-0.0707,-0.0709,-0.072,-0.0737,-0.0737,-0.078,-0.078,0,0,-0.0601,-0.0604,-0.0618,-0.0625,-0.0627,-0.064,-0.0644,-0.0692,-0.0706,-0.0707,-0.0711,-0.0721,-0.0737,-0.0737,-0.078,-0.078,0,0,0,-0.0589,-0.0601,-0.0607,-0.0622,-0.0636,-0.0642,-0.0647,-0.0704,-0.0703,-0.0712,-0.0721,-0.0737,-0.0738,-0.078,-0.078,-0.0785,0,0,0,-0.0586,-0.0593,-0.0606,-0.0609,-0.0636,-0.0678,-0.0658,-0.07,-0.0706,-0.0721,-0.0737,-0.0738,-0.078,-0.078,-0.0784,-0.0797,0,0,0,-0.0576,-0.0593,-0.0599,-0.0609,-0.0637,-0.0678,-0.0681,-0.0702,-0.0711,-0.0737,-0.0738,-0.078,-0.078,-0.0784,-0.0796,-0.0762,0,0,0,-0.0577,-0.0584,-0.0599,-0.0611,-0.0636,-0.0662,-0.0681,-0.0721,-0.0745,-0.0737,-0.078,-0.078,-0.0784,-0.0795,-0.0762,-0.0699,0,0,0,-0.0578,-0.0584,-0.0587,-0.0602,-0.063,-0.0652,-0.0688,-0.0736,-0.0746,-0.0762,-0.0763,-0.0784,-0.0796,-0.0762,-0.0718,0,0,0,0,-0.0581,-0.0595,-0.0602,-0.0628,-0.0644,-0.0676,-0.0719,-0.0729,-0.0762,-0.0762,-0.0789,-0.0797,-0.0775,-0.0739,-0.0782,-0.0781,-0.0781,-0.0781,-0.0781,-0.0594,-0.0602,-0.0624,-0.0643,-0.0661,-0.0708,-0.0726,-0.0751,-0.0765,-0.0776,-0.0804,-0.0789,-0.0753,-0.0802,-0.0802,-0.0802,-0.0802,-0.0802,-0.0802,-0.06,-0.0618,-0.0643,-0.067,-0.0697,-0.0733,-0.0744,-0.0763,-0.0782,-0.0796,-0.0774,-0.0752,-0.0802,-0.0802,-0.0802,-0.0802,-0.0802,-0.0802,-0.0802,-0.0617,-0.0628,-0.0649,-0.0683,-0.0729,-0.0754,-0.0756,-0.0782,-0.0785,-0.0795,-0.0737,-0.0785,-0.0778,-0.0781,-0.0781,-0.0781,-0.0781,-0.0781,-0.0781,-0.0619,-0.064,-0.0663,-0.07,-0.0723,-0.0743,-0.0764,-0.0739,-0.0751,-0.0743,-0.0801,-0.0782,-0.0782,-0.0777,-0.0779,-0.078,-0.078,-0.078,-0.078,-0.0635,-0.064,-0.0659,-0.068,-0.0713,-0.0711,-0.0724,-0.0668,-0.0647,-0.0615,-0.0692,-0.0696,-0.0683,-0.0686,-0.0676,-0.0649,-0.0648,-0.0648,0,-0.0635,-0.0642,-0.0655,-0.0667,-0.0671,-0.0687,-0.0633,-0.0605,-0.0602,-0.0623,-0.0645,-0.0735,-0.0737,-0.0726,-0.0727,-0.0717,0,0,0,-0.0629,-0.0632,-0.064,-0.0658,-0.0656,-0.0621,-0.0617,-0.0594,-0.0634,-0.0542,-0.0627,-0.0632,-0.0663,-0.0776,-0.0766,-0.0767,-0.0757,0,0]}]]